Погода в Кандалакше

Погода в Кандалакше : погода сейчас, прогноз погоды и архив. Всё, что Вы хотите узнать о погоде в Кандалакше!

Хотите узнать прогноз погоды в Кандалакше? Тогда Вам сюда: Погода в Кандалакше

Поиск расширенной информации на нашем сайте:

Полезная информация: Сварочные технологии сварочное оборудование.

Другие новости

Новости СМИ2

Главная страница сайта

Новости сайта

03.07.2017

Напоминаем, что на нашем специализированном сайте Метеоцентр.Азия вы можете получить высокодетализированные автоматические прогнозы погоды по пунктам России, СНГ и мира в авиационном формате (включающие направление и скорость ветра, видимость, явления погоды, количество и форму облачности, нижнюю и верхнюю границу облачности).

Рекомендуем: Мы предлагаем Вам cкачать программу исправления ошибок.

Погода в Кандалакше - сегодня

Время (UTC), дата Ветер
(°,м/с) 
Видим.   Явления Облачность Т
(°С)
Тd
(°С)
f(%) Тe
(°С)
Pmin
(гПа)
dP
(гПа)
Po
(мм)
O2
(г/м3)
Тmin Tmax R s Состояние
почвы
09 13.07.18 170 (Ю) 3-6  20000 м    1/0 верхняя 
[Ci fib]
+22 +7.7 40 +22  1017.5  -0.6  761  282           
12 13.07.18 170 (Ю) 2-5  20000 м    ясно 
+23.8 +9.3 40 +24  1016.3  -1.2  760  280           
15 13.07.18 160 (Ю) 3-5  20000 м    ясно 
+23.1 +8 38 +23  1015.3  -1  759  281           
21 13.07.18 230 (ЮЗ) 1-3  20000 м    1/0 верхняя 
[Cs]
+15.6 +11.6 77 +20  1015.4  0.3  759  287           
09 14.07.18 180 (Ю) 3-6  20000 м    9/1 600 м верхняя 
[Cu hum|Cc]
+20.4 +9.7 50 +21  1013.8  -0.6  758  283           
21 14.07.18 050 (СВ) 1-2  20000 м    9/4 600 м средняя, верхняя 
[Sc|Ac lent|Cc]
+16.3 +11.1 71 +20  1011.8  0.3  757  286           
09 16.07.18 180 (Ю) 2-4  20000 м    4/4 600 м кучево-дожд. 
[Cb cap]
+25.9 +12.9 45 +31  1014.6  0.3  759  277           
21 16.07.18 360 (С) 1-1  20000 м    ясно 
+17.7 +13.6 77 +25  1019.8  2.1  763  286           
09 17.07.18 170 (Ю) 3-6  10 км    ясно 
+21.4 +15 67 +30  1023.1  0.1  765  283           
12 17.07.18 170 (Ю) 3-8  10 км    ясно 
+22.8 +14.9 61 +31  1022.7  -0.4  765  281           
15 17.07.18 180 (Ю) 3-6  10 км    ясно 
+21.8 +13.4 59 +27  1022.3  -0.4  764  283           
21 17.07.18 200 (Ю) 1-3  10 км    1/0 верхняя 
[Ci fib]
+17.8 +12.5 71 +23  1022.7  0.4  765  287           
00 18.07.18 010 (С) 2-2  10 км    ясно 
+13.1 +11.8 92 +17  1023.6  0.8  765  292           
09 18.07.18 170 (Ю) 2-4  10 км    ясно 
+24.6 +12.6 47 +29  1023.3  0.1  765  280           
12 18.07.18 180 (Ю) 2-3  10 км    ясно 
+26.8 +10.9 37 +29  1022.5  -0.8  765  279           
15 18.07.18 160 (Ю) 3-6  10 км    ясно 
+26.5 +12.9 43 +31  1021.5  -0.9  764  278           
21 18.07.18 350 (С) 1-2  10 км    ясно 
+17.2 +13.9 81 +25  1021.8  0.4  764  287           
00 19.07.18 010 (С) 2-3  10 км    ясно 
+14.1 +12.3 89 +19  1022.7  0.8  765  291           
09 19.07.18 170 (Ю) 3-6  20000 м    ясно 
+24.8 +15.6 57 +34  1022.4  0.2  765  279           
12 19.07.18 170 (Ю) 3-6  20000 м    ясно 
+25.8 +14.7 50 +33  1022.2  -0.2  764  278           
15 19.07.18 160 (Ю) 4-7  10 км    ясно 
+24.4 +13.6 51 +30  1021.2  -1  764  280           
21 19.07.18 010 (С) 2-2  10 км    3/0 средняя 
[As trans]
+17 +13.1 78 +23  1021.2  0.4  764  287           
00 20.07.18 020 (С) 2-3  10 км    ясно 
+13.9 +11.7 87 +17  1022.1  0.8  764  291           
09 20.07.18 150 (ЮВ) 3-7  10 км    1/1 600 м 
[Cu hum]
+24.8 +15.3 56 +34  1019.9  -0.5  763  279           
21 20.07.18 300 (СЗ) 1-1  10 км    1/0 средняя 
[Ac lent]
+17 +14.6 86 +26  1016.4  760  285           
Время (UTC), дата Ветер
(°,м/с) 
Видим.   Явления Облачность Т
(°С)
Тd
(°С)
f(%) Тe
(°С)
Pmin
(гПа)
dP
(гПа)
Po
(мм)
O2
(г/м3)
Тmin Tmax R s Состояние
почвы

Для получения пояснительной информации подведите курсор к названию столбца.

ПОГОДА в Кандалакше - архив

Всё, что Вы хотите узнать о погоде в Кандалакше - удобно и подробно!

Выберите нужную дату (начиная с 1 января 2015* года) и нажмите кнопку "Найти".
Будут отображены архивные сводки погоды по пункту Кандалакша, начиная с указанной даты.


Отображать данные в формате CSV (для использования в таблицах Excel)


Внимание! Наш архив погоды предназначен исключительно для личного некоммерческого использования в познавательных целях. Если Вам необходимы официальные справки о состоянии погоды (для производственных, юридических, коммерческих и т.п. целей), обращайтесь в органы Росгидромета.

*Примечание: данная дата относится к архиву по метеостанциям СССР (Россия, СНГ, Балтия).
Архив по метеостанциям Зарубежной Европы и Азии (кроме Китая) хранится 10 дней, по другим регионам земного шара (Китай, Африка, Америка, Австралия, Океания) - 1 день.

Кандалакша - район местоположения метеостанции


Название, широта, долгота, высота метеостанции:
Кандалакша 67.2°ш. 32.3°д. 25 м над ур. моря [Российская Федерация]

Дополнительная информация

В oтличие oт бoльшинства пoгoдных сайтoв мы публикуем пoдрoбную метеoинфoрмацию в детальнoм прoфессиoнальнoм фoрмате.

Характеристики температуры и влажнoсти вoздуха измеряются на высoте 2 м в тени вдали oт зданий и деревьев.
Скoрoсть ветра измеряется на высoте 10 м (на урoвне рoста челoвека скoрoсть ветра ниже в 1.5-2 раза). Если метеoстанция нахoдится в гoрoде или в лесу, тo скoрoсть ветра занижена на 2-4 м/с пo сравнению с oткрытым местoм. Скoрoсть ветра над акватoриями крупных рек и oзёр, а также на вершинах хoлмoв на 2-5 м/с выше, чем в oбычных услoвиях.
Атмoсфернoе давление в разных тoчках местнoсти мoжет значительнo oтличаться oт давления на метеoстанции, в зависимoсти oт услoвий рельефа (при пoдъёме на 10 м давление пoнижается примернo на 1 мм рт.ст.).